[[{"header":{"parameterUnit":"m.s-1","parameterCategory":1,"la1":30.2991,"la2":30.254,"lo1":-89.0895,"lo2":-89.0444,"dy":0.0017,"dx":0.0017,"nx":28,"ny":28,"refTime":"2024-04-25T03:00:00:Z","depth":0,"parameterNumber":2,"parameterNumberName":"U-component_of_WINDS"},"data":[0,0,0,0,0,0,0,0,0,0,0,0,0,0,0,0,0,0,0,0,0,0,0,0,0,0,0,0,0,0,0,0,0,0,0,0,0,0,0,0,0,0,0,0,0,0,0,0,0,0,0,0,0,0,0,0,0,0,2.1544,2.1545,0,2.1626,2.1627,2.1628,2.1599,2.1598,2.1596,2.1594,2.1679,2.1683,2.1687,0,0,0,0,0,0,0,0,0,0,0,0,0,2.1361,2.1364,2.1544,2.1545,2.1546,2.1626,2.1627,2.1628,2.16,2.1598,2.1595,2.1593,2.1678,2.1683,2.1687,0,0,0,0,0,0,0,0,0,0,0,0,0,2.1441,2.1365,2.1543,2.1541,2.1542,2.1626,2.1627,2.1628,2.16,2.1597,2.1595,2.1592,2.1676,2.1682,2.1688,2.1779,0,0,2.1706,2.1709,0,0,0,0,0,0,0,0,2.1437,2.1448,2.154,2.1541,2.1542,2.16,2.1594,2.1679,2.1601,2.1578,2.1594,2.1591,2.1655,2.1662,2.1684,2.1783,2.1787,2.1707,2.171,2.1713,2.1714,0,0,0,0,0,0,0,2.1431,2.1444,2.1576,2.1542,2.1543,2.1536,2.1544,2.161,2.1631,2.158,2.1578,2.1588,2.1655,2.1678,2.1686,2.1788,2.1706,2.1712,2.1715,2.1718,2.1962,2.1965,0,0,0,0,0,0,2.1425,2.144,2.1574,2.1579,2.1482,2.1541,2.1551,2.1584,2.163,2.1634,2.159,2.1586,2.1669,2.1679,2.1689,2.1796,2.1713,2.1718,2.1722,2.196,2.1963,2.1966,0,0,0,0,0,0,2.1421,2.1437,2.157,2.1509,2.1525,2.1547,2.1585,2.1587,2.161,2.1638,2.1641,2.161,2.1668,2.168,2.1756,2.1798,2.1721,2.1726,2.1956,2.1961,2.1965,2.2012,0,0,0,0,0,0,2.1416,2.1436,2.1471,2.151,2.1528,2.1637,2.1588,2.1591,2.162,2.1616,2.1658,2.1662,2.1667,2.1747,2.1762,2.1805,2.1731,2.1952,2.1958,2.1963,2.2007,2.2018,2.2027,0,0,0,0,0,2.141,2.1482,2.1473,2.149,2.1573,2.1639,2.165,2.1653,2.1624,2.1659,2.1676,2.166,2.1792,2.1755,2.1771,2.1817,2.195,2.1956,2.1963,2.2002,2.2015,2.2027,0,0,0,0,0,0,2.1449,2.1488,2.1478,2.1565,2.1599,2.1634,2.1679,2.1668,2.1711,2.1705,2.1708,2.1718,2.1795,2.1814,2.1773,2.1906,2.1866,2.1876,2.1891,2.1903,2.1913,2.1906,2.1736,0,0,0,0,0,2.1468,2.1519,2.1549,2.1623,2.1641,2.1657,2.1686,2.1686,2.1721,2.1735,2.1758,2.1793,2.1842,2.1874,2.1921,2.201,2.2017,2.2049,2.2059,2.2067,2.2075,2.2121,2.2135,2.1988,2.1988,2.1988,0,0,2.1508,2.1535,2.1567,2.1632,2.1658,2.1709,2.1669,2.1726,2.1764,2.1744,2.1816,2.1834,2.1873,2.1955,2.1992,2.1973,2.2118,2.2076,2.2082,2.2086,2.2129,2.2143,2.2155,2.1993,2.1992,2.1991,0,0,2.1605,2.1632,2.1695,2.1721,2.1761,2.1771,2.1786,2.1823,2.1834,2.1906,2.1891,2.1936,2.2021,2.2048,2.2073,2.2179,2.2165,2.2194,2.2246,2.229,2.2302,2.2312,2.2347,2.236,2.2203,2.2203,2.2203,0,2.1649,2.1726,2.1729,2.1786,2.1814,2.1798,2.186,2.1886,2.194,2.1959,2.1937,2.204,2.2066,2.2153,2.2178,2.22,2.2216,2.2189,2.23,2.231,2.232,2.2353,2.2367,2.2206,2.2206,2.2205,2.2205,0,2.1777,2.183,2.1877,2.1927,2.196,2.202,2.2031,2.2065,2.2061,2.2073,2.2145,2.2175,2.2226,2.2247,2.2245,2.2333,2.2319,2.2299,2.2258,2.2337,2.2368,2.2381,2.221,2.2209,2.2208,2.2208,0,0,2.1902,2.1951,2.1968,2.1989,2.2031,2.2072,2.2131,2.218,2.2207,2.2244,2.2292,2.2363,2.2343,2.2372,2.2372,2.2412,2.249,2.2386,2.2387,2.2402,2.2586,2.2599,2.2614,2.2482,2.2484,2.2486,2.2581,0,2.2001,2.2103,2.2106,2.2199,2.2247,2.2231,2.2281,2.2312,2.2324,2.2367,2.2381,2.243,2.2402,2.2418,2.2456,2.2472,2.2527,2.2466,2.2525,2.2527,2.2513,2.2631,2.2646,2.2735,2.2594,2.2596,2.2598,0,2.213,2.2169,2.2267,2.2299,2.2319,2.2364,2.2408,2.2449,2.2483,2.2489,2.252,2.2514,2.2572,2.2531,2.2611,2.2569,2.2593,2.2605,2.2608,2.2612,2.2566,2.2636,2.2763,2.2776,2.2618,2.2616,2.2615,0,2.2208,2.2286,2.2353,2.2372,2.2412,2.2444,2.2462,2.2493,2.2521,2.256,2.2578,2.2623,2.2647,2.2682,2.2688,2.2658,2.2767,2.2727,2.2772,2.2772,2.2795,2.2793,2.2925,2.2814,2.2814,2.2814,2.2813,0,2.2317,2.2376,2.2388,2.2429,2.2495,2.2497,2.2562,2.2578,2.2605,2.2649,2.2639,2.2679,2.2686,2.2728,2.2734,2.2797,2.2809,2.2814,2.2815,2.2814,2.2813,2.2829,2.2822,2.2817,2.2816,2.2816,2.2815,0,2.2415,2.2425,2.2497,2.2528,2.2537,2.2584,2.2611,2.265,2.266,2.2715,2.2728,2.2745,2.2794,2.2804,2.2862,2.2866,2.294,2.2936,2.2928,2.2927,2.2971,2.2966,2.3116,2.3135,2.3014,2.3015,2.3016,0,2.2482,2.2527,2.2563,2.2591,2.261,2.2656,2.2684,2.2688,2.2717,2.2758,2.2791,2.2839,2.2877,2.2956,2.2973,2.3017,2.3012,2.3062,2.3018,2.3015,2.3009,2.3006,2.3009,2.3069,2.3071,2.3072,2.3073,0,2.2601,2.2603,2.2644,2.2686,2.272,2.2754,2.2786,2.2809,2.2817,2.2851,2.29,2.2929,2.2988,2.3034,2.3078,2.3096,2.3085,2.3086,2.3098,2.3097,2.309,2.3092,2.2948,2.3082,2.3081,2.3081,2.308,2.308,2.2684,2.2722,2.2752,2.2797,2.2821,2.2851,2.2888,2.2903,2.2944,2.2991,2.2991,2.3044,2.3074,2.3131,2.3152,2.3193,2.3177,2.3196,2.32,2.3204,2.3207,2.3085,2.3201,2.3201,2.3201,2.3201,2.3201,0,2.2799,2.2817,2.2859,2.2903,2.2938,2.2924,2.2959,2.2989,2.3035,2.3065,2.3101,2.3157,2.3201,2.3222,2.3265,2.3294,2.329,2.3305,2.3302,2.3306,2.322,2.3203,2.3308,2.3308,2.3308,2.3308,2.3308,2.3307,2.2863,2.2926,2.2931,2.3005,2.3023,2.3074,2.3095,2.3121,2.3144,2.3206,2.3242,2.3255,2.328,2.3325,2.3365,2.337,2.3385,2.3402,2.3405,2.3323,2.3312,2.3302,2.3286,2.3406,2.3406,2.3487,2.3488,2.3488]},{"header":{"parameterUnit":"m.s-1","parameterCategory":1,"la1":30.2991,"la2":30.254,"lo1":-89.0895,"lo2":-89.0444,"dy":0.0017,"dx":0.0017,"nx":28,"ny":28,"refTime":"2024-04-25T03:00:00:Z","depth":0,"parameterNumber":3,"parameterNumberName":"V-component_of_WINDS"},"data":[0,0,0,0,0,0,0,0,0,0,0,0,0,0,0,0,0,0,0,0,0,0,0,0,0,0,0,0,0,0,0,0,0,0,0,0,0,0,0,0,0,0,0,0,0,0,0,0,0,0,0,0,0,0,0,0,0,0,1.7091,1.7093,0,1.7225,1.7226,1.7228,1.7242,1.7241,1.7239,1.7238,1.7371,1.7375,1.738,0,0,0,0,0,0,0,0,0,0,0,0,0,1.6844,1.6848,1.7091,1.7093,1.7094,1.7224,1.7226,1.7228,1.7242,1.7241,1.7239,1.7237,1.7369,1.7375,1.7381,0,0,0,0,0,0,0,0,0,0,0,0,0,1.6962,1.685,1.7091,1.7117,1.7121,1.7224,1.7226,1.7228,1.7243,1.7241,1.7239,1.7237,1.7367,1.7374,1.7381,1.7466,0,0,1.7403,1.7406,0,0,0,0,0,0,0,0,1.6955,1.6971,1.7112,1.7116,1.712,1.7215,1.7188,1.7308,1.7243,1.7196,1.7238,1.7236,1.732,1.7331,1.736,1.7472,1.7478,1.7404,1.7408,1.7411,1.7413,0,0,0,0,0,0,0,1.6947,1.6965,1.7144,1.7114,1.7119,1.7121,1.7135,1.7211,1.7268,1.72,1.7202,1.7217,1.7322,1.7354,1.7364,1.748,1.7404,1.741,1.7415,1.7417,1.7666,1.7668,0,0,0,0,0,0,1.6934,1.6958,1.714,1.7148,1.7031,1.7127,1.7143,1.7186,1.7267,1.7278,1.7219,1.7218,1.7342,1.7355,1.7368,1.7472,1.7411,1.7418,1.7422,1.7664,1.7667,1.7669,0,0,0,0,0,0,1.6929,1.695,1.7134,1.7053,1.7077,1.7133,1.7182,1.719,1.7222,1.7281,1.7291,1.7241,1.7341,1.7358,1.7442,1.7477,1.7421,1.7428,1.7661,1.7665,1.7668,1.7681,0,0,0,0,0,0,1.6922,1.6948,1.6982,1.7054,1.7081,1.7207,1.7184,1.7194,1.7234,1.7234,1.7305,1.7314,1.7341,1.7431,1.7449,1.7486,1.7433,1.7658,1.7663,1.7667,1.7678,1.7684,1.769,0,0,0,0,0,1.6913,1.698,1.6984,1.7006,1.7125,1.7209,1.7224,1.7255,1.7237,1.7271,1.7309,1.7312,1.747,1.7439,1.746,1.7499,1.7656,1.7661,1.7666,1.7675,1.7683,1.769,0,0,0,0,0,0,1.691,1.699,1.6995,1.7088,1.7142,1.7211,1.7255,1.7263,1.7321,1.7318,1.7352,1.7368,1.745,1.7483,1.7447,1.7585,1.7561,1.7571,1.756,1.7569,1.7575,1.7565,1.7439,0,0,0,0,0,1.692,1.6983,1.7049,1.7124,1.7151,1.7198,1.7236,1.7254,1.7311,1.7333,1.7378,1.7431,1.7492,1.7532,1.7592,1.7682,1.7697,1.7719,1.7725,1.773,1.7738,1.7787,1.7797,1.7686,1.7686,1.7686,0,0,1.6942,1.6994,1.7031,1.7125,1.7169,1.7231,1.7217,1.7284,1.7331,1.7343,1.7425,1.7459,1.752,1.7607,1.7647,1.7637,1.7772,1.7737,1.774,1.7746,1.7793,1.7803,1.7813,1.769,1.7689,1.7688,0,0,1.7014,1.706,1.7127,1.7171,1.7238,1.7268,1.7284,1.7353,1.7376,1.7459,1.7469,1.7524,1.7629,1.7673,1.7708,1.7795,1.7799,1.7813,1.7846,1.7893,1.7902,1.791,1.794,1.795,1.782,1.7821,1.7821,0,1.7032,1.7129,1.716,1.7227,1.7268,1.7282,1.735,1.7391,1.7473,1.75,1.7487,1.762,1.7662,1.7758,1.7779,1.7808,1.7826,1.7805,1.7898,1.7906,1.7914,1.7943,1.7955,1.7822,1.7822,1.7821,1.7821,0,1.7147,1.7214,1.726,1.734,1.7385,1.7452,1.7492,1.7534,1.7548,1.758,1.7663,1.7714,1.7784,1.7808,1.7823,1.7907,1.7898,1.7891,1.7868,1.7925,1.7953,1.7965,1.7824,1.7823,1.7823,1.7822,0,0,1.7222,1.7318,1.7335,1.7371,1.7445,1.7496,1.7562,1.7632,1.7667,1.7722,1.7778,1.7866,1.7861,1.7901,1.792,1.7961,1.8025,1.7949,1.7951,1.7961,1.8119,1.8124,1.8136,1.8028,1.803,1.8032,1.8114,0,1.7302,1.7423,1.7453,1.7555,1.7616,1.763,1.7687,1.7738,1.7769,1.7823,1.7856,1.7919,1.7906,1.7931,1.7972,1.8009,1.8057,1.8003,1.8079,1.8081,1.8064,1.8151,1.8157,1.8231,1.8125,1.8127,1.8128,0,1.7412,1.7471,1.758,1.7645,1.7671,1.7723,1.7788,1.7841,1.7898,1.7917,1.7961,1.7976,1.8044,1.8017,1.811,1.8072,1.8105,1.8127,1.8131,1.8139,1.8108,1.8161,1.8256,1.8267,1.8146,1.8144,1.8143,0,1.7455,1.7561,1.764,1.767,1.7748,1.7784,1.7818,1.7873,1.7912,1.7969,1.7994,1.8057,1.8092,1.814,1.817,1.8148,1.826,1.8236,1.8277,1.8276,1.8301,1.8299,1.8401,1.8322,1.8321,1.8321,1.8321,0,1.7542,1.7607,1.766,1.7709,1.7782,1.7815,1.7886,1.792,1.7968,1.8022,1.8037,1.8087,1.8124,1.8179,1.8203,1.8275,1.8291,1.8307,1.8313,1.8306,1.8304,1.8328,1.8324,1.8324,1.8323,1.8323,1.8322,0,1.7603,1.7641,1.7727,1.7794,1.7812,1.7863,1.7919,1.7965,1.7996,1.8064,1.8081,1.8129,1.8194,1.8229,1.8309,1.8325,1.8407,1.841,1.8388,1.8391,1.8429,1.8425,1.8551,1.8569,1.8477,1.8478,1.8479,0,1.7655,1.7706,1.7778,1.7816,1.785,1.7911,1.7951,1.7985,1.8026,1.8094,1.8131,1.8197,1.8252,1.8354,1.8395,1.8456,1.846,1.85,1.847,1.8461,1.8461,1.8457,1.8462,1.8506,1.8506,1.8507,1.8508,0,1.7744,1.7761,1.7819,1.7884,1.7932,1.7985,1.8037,1.8066,1.8107,1.8152,1.822,1.8262,1.8344,1.8409,1.8473,1.8506,1.8514,1.8517,1.853,1.8523,1.8509,1.8517,1.8403,1.8514,1.8513,1.8513,1.8513,1.8512,1.7803,1.7848,1.7906,1.797,1.8013,1.806,1.8107,1.8144,1.8201,1.8271,1.8287,1.8357,1.8411,1.8498,1.8533,1.8587,1.8579,1.8597,1.8602,1.8606,1.8607,1.85,1.8599,1.8598,1.8598,1.8598,1.8598,0,1.7892,1.793,1.7989,1.8061,1.8111,1.8115,1.8172,1.8213,1.8275,1.8325,1.8378,1.8454,1.8517,1.8562,1.8625,1.866,1.8665,1.8675,1.8673,1.868,1.8611,1.8594,1.867,1.867,1.867,1.867,1.867,1.867,1.7945,1.8022,1.8045,1.8143,1.8179,1.8249,1.8281,1.8325,1.8365,1.845,1.8502,1.8531,1.8579,1.8646,1.8702,1.8714,1.8736,1.8746,1.8758,1.8693,1.8685,1.8678,1.8662,1.8751,1.8751,1.8823,1.8823,1.8824]}]]